[[{"header":{"parameterUnit":"m.s-1","parameterCategory":1,"la1":30.2991,"la2":30.254,"lo1":-89.0895,"lo2":-89.0444,"dy":0.0017,"dx":0.0017,"nx":28,"ny":28,"refTime":"2024-06-06T21:00:00:Z","depth":0,"parameterNumber":2,"parameterNumberName":"U-component_of_WINDS"},"data":[0,0,0,0,0,0,0,0,0,0,0,0,0,0,0,0,0,0,0,0,0,0,0,0,0,0,0,0,0,0,0,0,0,0,0,0,0,0,0,0,0,0,0,0,0,0,0,0,0,0,0,0,0,0,0,0,0,0,0.4295,0.4295,0,0.4275,0.4274,0.4274,0.4195,0.4193,0.4192,0.419,0.4172,0.4173,0.4175,0,0,0,0,0,0,0,0,0,0,0,0,0,0.4268,0.4269,0.4295,0.4295,0.4295,0.4275,0.4274,0.4274,0.4196,0.4193,0.4191,0.4189,0.4172,0.4173,0.4175,0,0,0,0,0,0,0,0,0,0,0,0,0,0.4267,0.4269,0.4295,0.4253,0.4249,0.4275,0.4274,0.4274,0.4196,0.4193,0.4191,0.4188,0.4171,0.4173,0.4175,0.4241,0,0,0.4181,0.4181,0,0,0,0,0,0,0,0,0.4267,0.4268,0.426,0.4256,0.4252,0.4235,0.4258,0.4263,0.4197,0.4216,0.419,0.4187,0.4195,0.4195,0.4197,0.424,0.4239,0.4181,0.4182,0.4183,0.4183,0,0,0,0,0,0,0,0.4267,0.4268,0.4287,0.4259,0.4255,0.4235,0.4232,0.4259,0.4222,0.4214,0.4209,0.4207,0.4193,0.4196,0.4196,0.4239,0.4181,0.4182,0.4183,0.4184,0.4332,0.4334,0,0,0,0,0,0,0.4273,0.4269,0.4288,0.4286,0.4253,0.4238,0.4235,0.4243,0.4221,0.4215,0.4209,0.4203,0.4194,0.4194,0.4195,0.4269,0.4183,0.4184,0.4185,0.4329,0.4332,0.4335,0,0,0,0,0,0,0.4273,0.4275,0.4289,0.4276,0.4276,0.4241,0.4251,0.4244,0.4247,0.4217,0.421,0.4219,0.4192,0.4193,0.4229,0.4268,0.4185,0.4187,0.4326,0.433,0.4334,0.4419,0,0,0,0,0,0,0.4272,0.4276,0.43,0.4277,0.4277,0.4323,0.4254,0.4245,0.425,0.4242,0.4225,0.4219,0.419,0.4227,0.4231,0.4269,0.4188,0.4322,0.4327,0.4332,0.4412,0.4425,0.4437,0,0,0,0,0,0.4271,0.4326,0.4302,0.4305,0.4307,0.4325,0.4325,0.4289,0.4253,0.4278,0.4258,0.422,0.4263,0.4231,0.4235,0.4274,0.4319,0.4326,0.4332,0.4407,0.4423,0.4436,0,0,0,0,0,0,0.4357,0.4323,0.4295,0.4344,0.4338,0.4312,0.4342,0.4308,0.4313,0.4305,0.4261,0.4258,0.43,0.4291,0.4256,0.4335,0.4284,0.4292,0.434,0.4355,0.4367,0.4368,0.419,0,0,0,0,0,0.4381,0.4398,0.4367,0.4414,0.4412,0.4377,0.4384,0.4356,0.4349,0.4346,0.4329,0.4324,0.4335,0.4345,0.4354,0.441,0.4405,0.4439,0.4451,0.4461,0.4468,0.4495,0.4509,0.4356,0.4356,0.4356,0,0,0.4432,0.4416,0.4429,0.443,0.4422,0.444,0.4376,0.4399,0.4412,0.435,0.4382,0.437,0.4361,0.4407,0.4426,0.44,0.4509,0.4469,0.4477,0.4479,0.4503,0.4517,0.453,0.436,0.436,0.4359,0,0,0.4534,0.4524,0.456,0.4552,0.454,0.4516,0.4525,0.4503,0.4492,0.4523,0.4476,0.4492,0.4514,0.4508,0.4509,0.4605,0.457,0.461,0.4673,0.47,0.4712,0.4722,0.4755,0.4768,0.4617,0.4617,0.4617,0,0.46,0.4625,0.4583,0.4608,0.4609,0.4552,0.4588,0.4583,0.4575,0.4577,0.4548,0.4572,0.4562,0.4605,0.4628,0.4631,0.4639,0.4612,0.4713,0.4723,0.4732,0.4763,0.4776,0.4622,0.4621,0.4621,0.462,0,0.4705,0.4723,0.4753,0.4745,0.4749,0.478,0.4743,0.4753,0.4724,0.4704,0.4736,0.4721,0.4726,0.4734,0.4707,0.4772,0.4756,0.4721,0.4669,0.4752,0.4781,0.4793,0.4629,0.4627,0.4626,0.4624,0,0,0.4862,0.4827,0.4839,0.4834,0.4815,0.4828,0.4855,0.4858,0.4866,0.4862,0.4884,0.4902,0.4868,0.4868,0.484,0.4864,0.4939,0.4825,0.4824,0.4846,0.5008,0.5035,0.505,0.4915,0.4917,0.4919,0.5009,0,0.4958,0.5001,0.4964,0.5014,0.503,0.4974,0.4997,0.4988,0.4969,0.4979,0.4959,0.4972,0.4926,0.4926,0.4947,0.4926,0.4971,0.4919,0.4935,0.4936,0.4938,0.5065,0.5093,0.5179,0.502,0.5022,0.5023,0,0.5076,0.5075,0.5127,0.5101,0.5106,0.5128,0.5126,0.5137,0.5125,0.5109,0.5108,0.5073,0.5097,0.5046,0.5079,0.5044,0.5048,0.5038,0.5041,0.5041,0.4985,0.5068,0.5205,0.5218,0.5041,0.5039,0.5038,0,0.5184,0.5196,0.5227,0.5224,0.5196,0.5212,0.5202,0.5187,0.519,0.5188,0.519,0.5192,0.5193,0.5196,0.5161,0.5127,0.5198,0.5145,0.5185,0.5186,0.5203,0.5203,0.5343,0.5207,0.5207,0.5206,0.5206,0,0.5295,0.5329,0.5275,0.5295,0.533,0.5286,0.5323,0.5306,0.5293,0.5308,0.5261,0.5276,0.523,0.5241,0.5214,0.5245,0.5246,0.5234,0.5226,0.5238,0.5239,0.524,0.5233,0.521,0.5209,0.5208,0.5208,0,0.5422,0.5387,0.5418,0.5388,0.5381,0.5408,0.5382,0.5399,0.5376,0.5396,0.5398,0.5362,0.5371,0.5337,0.5342,0.5324,0.5368,0.5351,0.5372,0.5367,0.5409,0.5405,0.5554,0.5571,0.5425,0.5427,0.5428,0,0.5495,0.5519,0.549,0.5496,0.5487,0.5498,0.55,0.5457,0.5461,0.5448,0.5466,0.5471,0.5473,0.5491,0.5466,0.5469,0.5451,0.5503,0.5451,0.5461,0.5451,0.5449,0.5451,0.5514,0.5516,0.5517,0.5519,0,0.5627,0.5608,0.5613,0.561,0.5614,0.561,0.5604,0.5612,0.5565,0.5572,0.558,0.5582,0.5585,0.5591,0.5588,0.5577,0.554,0.5535,0.5544,0.5556,0.5566,0.556,0.5401,0.5532,0.553,0.5529,0.5529,0.5528,0.5729,0.5746,0.5728,0.5734,0.5724,0.5718,0.5732,0.5709,0.5715,0.5713,0.5687,0.57,0.5685,0.5677,0.5669,0.5679,0.5655,0.5669,0.5672,0.5676,0.5683,0.5565,0.5678,0.5678,0.5678,0.5677,0.5677,0,0.5858,0.5842,0.5848,0.5839,0.5843,0.5806,0.5796,0.5803,0.5814,0.5803,0.5805,0.5813,0.5818,0.5792,0.5792,0.5805,0.5788,0.5807,0.5805,0.5803,0.5705,0.5696,0.582,0.582,0.582,0.582,0.582,0.582,0.5925,0.5953,0.5931,0.5953,0.5937,0.5948,0.5946,0.594,0.593,0.5941,0.5944,0.5926,0.5909,0.5907,0.591,0.5902,0.5904,0.5928,0.5915,0.5824,0.581,0.5797,0.5788,0.5929,0.593,0.6011,0.6012,0.6013]},{"header":{"parameterUnit":"m.s-1","parameterCategory":1,"la1":30.2991,"la2":30.254,"lo1":-89.0895,"lo2":-89.0444,"dy":0.0017,"dx":0.0017,"nx":28,"ny":28,"refTime":"2024-06-06T21:00:00:Z","depth":0,"parameterNumber":3,"parameterNumberName":"V-component_of_WINDS"},"data":[0,0,0,0,0,0,0,0,0,0,0,0,0,0,0,0,0,0,0,0,0,0,0,0,0,0,0,0,0,0,0,0,0,0,0,0,0,0,0,0,0,0,0,0,0,0,0,0,0,0,0,0,0,0,0,0,0,0,2.8972,2.8973,0,2.9078,2.9079,2.908,2.9114,2.9113,2.9113,2.9112,2.9213,2.9216,2.9219,0,0,0,0,0,0,0,0,0,0,0,0,0,2.8791,2.8795,2.8972,2.8974,2.8975,2.9078,2.9079,2.9081,2.9114,2.9113,2.9113,2.9112,2.9212,2.9216,2.922,0,0,0,0,0,0,0,0,0,0,0,0,0,2.8881,2.8796,2.8972,2.9004,2.9008,2.9078,2.9079,2.9081,2.9114,2.9113,2.9113,2.9112,2.9211,2.9215,2.922,2.9263,0,0,2.9234,2.9236,0,0,0,0,0,0,0,0,2.8875,2.8887,2.8998,2.9002,2.9006,2.9082,2.9053,2.9142,2.9114,2.9073,2.9112,2.9112,2.917,2.9178,2.9199,2.9268,2.9272,2.9235,2.9238,2.924,2.9241,0,0,0,0,0,0,0,2.8869,2.8883,2.9014,2.8999,2.9005,2.9011,2.9022,2.907,2.9124,2.9077,2.908,2.9092,2.9172,2.9194,2.9201,2.9274,2.9235,2.9239,2.9242,2.9244,2.9383,2.9383,0,0,0,0,0,0,2.8859,2.8877,2.901,2.9017,2.8938,2.9014,2.9028,2.9058,2.9124,2.9133,2.9093,2.9093,2.9187,2.9196,2.9205,2.926,2.924,2.9244,2.9247,2.9382,2.9383,2.9384,0,0,0,0,0,0,2.8855,2.887,2.9006,2.8948,2.8966,2.9018,2.9052,2.9061,2.9084,2.9136,2.9145,2.9106,2.9186,2.9198,2.9249,2.9264,2.9246,2.925,2.9381,2.9382,2.9383,2.937,0,0,0,0,0,0,2.8849,2.8869,2.8887,2.8948,2.8969,2.9051,2.9053,2.9063,2.9092,2.9094,2.9151,2.9159,2.9187,2.9242,2.9254,2.927,2.9254,2.938,2.9381,2.9383,2.937,2.9371,2.9372,0,0,0,0,0,2.8843,2.8878,2.8888,2.8904,2.8994,2.9051,2.9063,2.9096,2.9094,2.9112,2.9145,2.9157,2.926,2.9247,2.926,2.9278,2.9379,2.9381,2.9383,2.9369,2.9371,2.9372,0,0,0,0,0,0,2.8815,2.8887,2.8899,2.8955,2.8997,2.9057,2.9081,2.9097,2.9139,2.9138,2.9175,2.9187,2.9235,2.9261,2.9245,2.9323,2.932,2.9325,2.9305,2.9307,2.9308,2.9301,2.9258,0,0,0,0,0,2.8816,2.8859,2.8918,2.8962,2.8983,2.9028,2.9054,2.9077,2.9121,2.9138,2.9175,2.9215,2.9256,2.9283,2.9324,2.9373,2.9385,2.9392,2.9393,2.9394,2.9398,2.9426,2.9429,2.939,2.939,2.939,0,0,2.8817,2.8862,2.8886,2.8958,2.8993,2.9035,2.9043,2.9087,2.9118,2.9144,2.9195,2.9223,2.927,2.932,2.9344,2.9343,2.9411,2.9397,2.9397,2.9401,2.9428,2.9432,2.9435,2.9392,2.9391,2.9391,0,0,2.8842,2.888,2.8921,2.8956,2.9011,2.9041,2.905,2.9108,2.9128,2.918,2.9201,2.9236,2.9307,2.934,2.9366,2.9402,2.9415,2.9414,2.9421,2.9447,2.945,2.9453,2.9466,2.9471,2.9417,2.9417,2.9417,0,2.8836,2.8903,2.8939,2.8983,2.9013,2.9041,2.9081,2.9113,2.9176,2.9195,2.9195,2.9284,2.9318,2.9376,2.9385,2.9405,2.9416,2.9408,2.9447,2.9451,2.9454,2.9467,2.9471,2.9417,2.9417,2.9417,2.9417,0,2.8893,2.8938,2.8964,2.9028,2.9061,2.9102,2.9143,2.9172,2.919,2.9219,2.9271,2.9312,2.9362,2.9377,2.9395,2.9438,2.9436,2.9441,2.9438,2.9457,2.9469,2.9474,2.9416,2.9416,2.9416,2.9417,0,0,2.8903,2.8987,2.8996,2.9025,2.9087,2.9121,2.9163,2.9214,2.9238,2.928,2.9315,2.9374,2.9379,2.9408,2.943,2.9453,2.9479,2.9455,2.9456,2.9458,2.9528,2.9525,2.953,2.9487,2.9488,2.9489,2.9525,0,2.8936,2.9016,2.9049,2.9112,2.9154,2.918,2.9216,2.9257,2.9285,2.9322,2.9352,2.9394,2.9397,2.9415,2.9439,2.9471,2.9493,2.9468,2.9519,2.952,2.9508,2.9537,2.9534,2.9565,2.953,2.9531,2.9531,0,2.8985,2.9031,2.9098,2.9155,2.9174,2.9206,2.9256,2.9292,2.9337,2.9355,2.9388,2.9408,2.9451,2.9445,2.9503,2.9486,2.9508,2.9526,2.9528,2.9535,2.9528,2.9545,2.9576,2.9581,2.9539,2.9539,2.9538,0,2.8987,2.9064,2.9115,2.9139,2.9206,2.9228,2.9256,2.9301,2.933,2.9372,2.939,2.9436,2.946,2.9494,2.9525,2.9518,2.958,2.9577,2.9596,2.9595,2.9609,2.9607,2.9645,2.9621,2.9621,2.9621,2.9621,0,2.902,2.9061,2.9117,2.9148,2.9193,2.9231,2.9273,2.9303,2.9343,2.9378,2.9402,2.9435,2.9474,2.951,2.9534,2.9579,2.959,2.9605,2.9611,2.9603,2.9602,2.9619,2.9618,2.9623,2.9622,2.9622,2.9622,0,2.903,2.907,2.9127,2.9186,2.9202,2.9232,2.9282,2.9312,2.9341,2.9386,2.9398,2.9443,2.9487,2.9522,2.9578,2.9594,2.9642,2.9648,2.9628,2.9631,2.9648,2.9646,2.9699,2.9707,2.9677,2.9678,2.9678,0,2.905,2.9082,2.9145,2.9172,2.9201,2.9244,2.9274,2.931,2.934,2.9394,2.9417,2.9463,2.9503,2.9572,2.9608,2.9652,2.9659,2.9675,2.9666,2.9657,2.966,2.9658,2.9662,2.9676,2.9676,2.9676,2.9676,0,2.908,2.9098,2.9142,2.9192,2.9227,2.9268,2.9309,2.9329,2.9372,2.9404,2.9451,2.9482,2.9541,2.9587,2.9634,2.966,2.9675,2.9679,2.9685,2.9679,2.9666,2.9674,2.9631,2.9677,2.9677,2.9677,2.9677,2.9677,2.9096,2.9126,2.9175,2.9223,2.9257,2.9295,2.9327,2.936,2.9401,2.9454,2.9472,2.9521,2.9563,2.9629,2.9656,2.9693,2.9693,2.9703,2.9705,2.9708,2.9707,2.9659,2.9701,2.9701,2.9701,2.9701,2.9701,0,2.9128,2.9161,2.9204,2.9262,2.9299,2.9312,2.9357,2.9387,2.943,2.947,2.9509,2.9562,2.9607,2.9646,2.9692,2.9714,2.9722,2.9724,2.9724,2.9729,2.9704,2.9694,2.9717,2.9717,2.9717,2.9717,2.9717,2.9717,2.9149,2.9201,2.9224,2.9292,2.9324,2.9374,2.9399,2.9433,2.9466,2.9526,2.9564,2.959,2.9629,2.9678,2.9718,2.9729,2.9744,2.9746,2.9758,2.9733,2.9731,2.9729,2.972,2.9749,2.9749,2.978,2.9781,2.9781]}]]